Overview Statistics Trail Chart Weather Telemetry Raw packets
 

This is the latest recevied weather packets stored in our database for station/object K6CEG. If no packets are shown the sender has not sent any weather packets the latest 10 day(s).

<< 44 45 46 47 48 49 50 >>
Time Temp. Humidity Pressure Rain* Wind** Luminosity Snow
1788380877 28.89° C 34% 1017.1 hPa 0 mm - 697 W/m² -
1788380574 28.89° C 32% 1017.2 hPa 0 mm - 696 W/m² -
1788380270 28.89° C 32% 1017.3 hPa 0 mm - 673 W/m² -
1788379969 28.89° C 34% 1017.4 hPa 0 mm - 681 W/m² -
1788379664 29.44° C 33% 1017.7 hPa 0 mm - 692 W/m² -
1788379360 28.89° C 31% 1017.6 hPa 0 mm - 661 W/m² -
1788379055 28.89° C 32% 1017.4 hPa 0 mm - 613 W/m² -
1788378754 28.89° C 33% 1017.8 hPa 0 mm - 607 W/m² -
1788378454 29.44° C 32% 1017.5 hPa 0 mm - 649 W/m² -
1788378149 28.89° C 34% 1017.7 hPa 0 mm - 678 W/m² -
1788377845 28.33° C 31% 1017.7 hPa 0 mm - 668 W/m² -
1788377540 28.33° C 34% 1017.6 hPa 0 mm - 660 W/m² -
1788377239 27.78° C 35% 1017.7 hPa 0 mm - 678 W/m² -
1788376938 28.33° C 34% 1017.9 hPa 0 mm - 716 W/m² -
1788376638 28.33° C 33% 1017.9 hPa 0 mm - 712 W/m² -
1788376333 28.33° C 33% 1018 hPa 0 mm - 702 W/m² -
1788376029 28.33° C 34% 1018 hPa 0 mm - 753 W/m² -
1788375728 28.33° C 35% 1018 hPa 0 mm - 783 W/m² -
1788375424 27.78° C 34% 1018.2 hPa 0 mm - 803 W/m² -
1788375120 27.78° C 33% 1018.1 hPa 0 mm - 808 W/m² -
1788374815 27.22° C 34% 1018.3 hPa 0 mm - 804 W/m² -
1788374511 27.22° C 36% 1018.5 hPa 0 mm - 757 W/m² -
1788374206 27.78° C 37% 1018.3 hPa 0 mm - 767 W/m² -
1788373903 27.22° C 38% 1018.3 hPa 0 mm - 774 W/m² -
1788373598 27.22° C 39% 1018.3 hPa 0 mm - 809 W/m² -

* Rain latest hour (hover to see other rain measurements)
** Current wind speed in m/s (hover to see current wind gust speed)